TimeEDT,TemperatureF,Dew PointF,Humidity,Sea Level PressureIn,VisibilityMPH,Wind Direction,Wind SpeedMPH,Gust SpeedMPH,PrecipitationIn,Events,Conditions,WindDirDegrees,DateUTC
12:54 AM,39.0,26.1,60,29.77,10.0,Variable,3.5,-,N/A,,Scattered Clouds,0,2013-03-25 04:54:00
1:54 AM,37.0,27.0,67,29.76,10.0,North,5.8,-,N/A,,Scattered Clouds,350,2013-03-25 05:54:00
2:54 AM,37.0,27.0,67,29.75,10.0,NNW,5.8,-,N/A,,Scattered Clouds,330,2013-03-25 06:54:00
3:54 AM,36.0,25.0,64,29.74,10.0,North,4.6,-,N/A,,Mostly Cloudy,360,2013-03-25 07:54:00
4:54 AM,35.1,24.1,64,29.73,10.0,North,6.9,-,N/A,,Mostly Cloudy,350,2013-03-25 08:54:00
5:54 AM,33.1,25.0,72,29.71,10.0,NNE,6.9,-,N/A,,Mostly Cloudy,20,2013-03-25 09:54:00
6:54 AM,34.0,26.1,73,29.71,10.0,NNE,9.2,-,N/A,,Mostly Cloudy,20,2013-03-25 10:54:00
7:54 AM,35.1,28.0,76,29.71,10.0,NNE,10.4,-,N/A,,Mostly Cloudy,20,2013-03-25 11:54:00
8:54 AM,37.9,30.9,76,29.71,10.0,NNE,10.4,-,N/A,,Overcast,20,2013-03-25 12:54:00
9:54 AM,41.0,33.1,73,29.69,10.0,NNE,15.0,-,N/A,,Overcast,30,2013-03-25 13:54:00
10:19 AM,42.8,33.8,70,29.68,10.0,NE,17.3,21.9,N/A,,Overcast,50,2013-03-25 14:19:00
10:54 AM,42.1,35.1,76,29.68,10.0,ENE,15.0,-,N/A,,Overcast,60,2013-03-25 14:54:00
11:42 AM,42.8,35.6,76,29.67,10.0,NE,18.4,-,N/A,,Overcast,50,2013-03-25 15:42:00
11:54 AM,43.0,36.0,76,29.66,10.0,ENE,16.1,-,N/A,,Overcast,60,2013-03-25 15:54:00
12:54 PM,44.1,36.0,73,29.64,10.0,ENE,19.6,-,N/A,,Scattered Clouds,60,2013-03-25 16:54:00
1:54 PM,43.0,35.1,74,29.62,10.0,ENE,18.4,-,N/A,,Mostly Cloudy,60,2013-03-25 17:54:00
2:54 PM,42.1,34.0,73,29.60,10.0,NE,21.9,27.6,N/A,,Mostly Cloudy,50,2013-03-25 18:54:00
3:54 PM,42.1,34.0,73,29.53,10.0,NE,21.9,28.8,N/A,,Mostly Cloudy,50,2013-03-25 19:54:00
4:54 PM,39.9,32.0,73,29.54,10.0,NE,21.9,-,N/A,,Mostly Cloudy,50,2013-03-25 20:54:00
5:54 PM,39.9,30.9,70,29.54,10.0,NE,17.3,26.5,N/A,,Overcast,50,2013-03-25 21:54:00
6:54 PM,39.0,30.9,73,29.55,10.0,NE,18.4,26.5,0.00,,Overcast,50,2013-03-25 22:54:00
7:54 PM,37.9,30.0,73,29.55,10.0,NE,19.6,26.5,N/A,,Overcast,40,2013-03-25 23:54:00
8:54 PM,39.0,30.0,70,29.56,10.0,NE,18.4,26.5,N/A,,Overcast,50,2013-03-26 00:54:00
9:54 PM,39.0,30.0,70,29.55,10.0,NE,15.0,-,N/A,,Overcast,40,2013-03-26 01:54:00
10:54 PM,39.0,30.0,70,29.55,10.0,NNE,12.7,-,N/A,,Overcast,20,2013-03-26 02:54:00
11:27 PM,37.4,30.2,75,29.54,10.0,North,11.5,-,N/A,,Overcast,360,2013-03-26 03:27:00
11:54 PM,37.9,30.9,76,29.54,10.0,North,11.5,-,0.00,Rain,Light Rain,360,2013-03-26 03:54:00